Lynchburg, VA

10:22 AM EST on January 16, 2017 (GMT -0500)
Lynchburg Regional-Glenn

Weather History for KLYH - May, 2012

Change the Weather History Date:

Monday, May 28, 2012

  Actual Average Record
Temperature  
Mean Temperature 76 °F 66 °F  
Max Temperature 86 °F 78 °F 97 °F (1941)
Min Temperature 65 °F 55 °F 39 °F (1961)
Degree Days  
Heating Degree Days 0 2  
Month to date heating degree days 34 116  
Since 1 July heating degree days 3516 4439  
Cooling Degree Days 11 3  
Month to date cooling degree days 103 52  
Year to date cooling degree days 132 70  
Growing Degree Days 26 (Base 50)    
Moisture  
Dew Point 67 °F    
Average Humidity 74    
Maximum Humidity 93    
Minimum Humidity 55    
Precipitation  
Precipitation 0.00 in 0.14 in 1.50 in (1990)
Month to date precipitation 1.89 3.34  
Year to date precipitation 14.94 16.30  
Snow  
Snow 0.00 in - - ()
Month to date snowfall 0.0  
Since 1 July snowfall 8.5  
Snow Depth 0.00 in    
Sea Level Pressure  
Sea Level Pressure 30.06 in    
Wind  
Wind Speed 5 mph (SSW)    
Max Wind Speed 15 mph    
Max Gust Speed 23 mph    
Visibility 10 miles    
Events      
T = Trace of Precipitation, MM = Missing Value Source: NWS Daily Summary

Daily Weather History Graph

Daily Weather History Graph

Search for Another Location

Airport or City:

Trip Planner

Search our weather history database for the weather conditions in past years. The results will help you decide how hot, cold, wet, or windy it might be!

Date:

Astronomy

May. 28, 2012 Rise Set
Actual Time 5:59 AM EDT 8:29 PM EDT
Civil Twilight 5:29 AM EDT 8:59 PM EDT
Nautical Twilight 4:51 AM EDT 9:37 PM EDT
Astronomical Twilight 4:10 AM EDT 10:18 PM EDT
Moon 1:01 PM EDT (5/28) 1:11 AM EDT (5/28)
Length of Visible Light 15h 30m
Length of Day
14h 30m
Waxing Crescent, 48% of the Moon is Illuminated
May 28
Waxing Crescent
May 28
First Quarter
Jun 4
Full
Jun 11
Last Quarter
Jun 19
New

Hourly Weather History & Observations

Time (EDT) Temp. Heat Index Dew Point Humidity Pressure Visibility Wind Dir Wind Speed Gust Speed Precip Events Conditions
12:54 AM 68.0 °F - 64.0 °F 87% 30.12 in 10.0 mi Calm Calm - N/A   Mostly Cloudy
1:54 AM 68.0 °F - 64.9 °F 90% 30.12 in 10.0 mi Calm Calm - N/A   Mostly Cloudy
2:54 AM 70.0 °F - 64.9 °F 84% 30.10 in 10.0 mi Calm Calm - N/A   Scattered Clouds
3:54 AM 66.0 °F - 64.0 °F 93% 30.07 in 10.0 mi SSW 3.5 mph - N/A   Clear
4:54 AM 66.9 °F - 64.9 °F 93% 30.04 in 10.0 mi SSW 4.6 mph - N/A   Clear
5:54 AM 66.0 °F - 64.9 °F 96% 30.05 in 10.0 mi Calm Calm - N/A   Clear
6:54 AM 66.9 °F - 64.9 °F 93% 30.06 in 10.0 mi Calm Calm - N/A   Scattered Clouds
7:07 AM 66.2 °F - 64.4 °F 94% 30.09 in 10.0 mi SSW 3.5 mph - N/A   Mostly Cloudy
7:23 AM 66.2 °F - 66.2 °F 100% 30.09 in 10.0 mi Calm Calm - N/A   Overcast
7:54 AM 69.1 °F - 66.9 °F 93% 30.07 in 10.0 mi SSW 5.8 mph - N/A   Overcast
8:04 AM 69.8 °F - 66.2 °F 88% 30.10 in 10.0 mi South 6.9 mph - N/A   Overcast
8:54 AM 73.0 °F - 68.0 °F 84% 30.09 in 10.0 mi SSW 6.9 mph - N/A   Overcast
9:05 AM 73.4 °F - 68.0 °F 83% 30.11 in 10.0 mi SSW 6.9 mph - N/A   Mostly Cloudy
9:54 AM 77.0 °F - 69.1 °F 76% 30.09 in 10.0 mi South 8.1 mph - N/A   Scattered Clouds
10:02 AM 77.0 °F - 69.8 °F 78% 30.12 in 10.0 mi South 8.1 mph - N/A   Mostly Cloudy
10:17 AM 77.0 °F - 69.8 °F 78% 30.11 in 10.0 mi SSW 5.8 mph - N/A   Mostly Cloudy
10:54 AM 78.1 °F - 69.1 °F 74% 30.09 in 10.0 mi SSW 6.9 mph - N/A   Mostly Cloudy
11:03 AM 78.8 °F - 68.0 °F 69% 30.11 in 10.0 mi SSW 9.2 mph - N/A   Partly Cloudy
11:33 AM 82.4 °F 86.3 °F 69.8 °F 66% 30.11 in 10.0 mi Variable 4.6 mph - N/A   Mostly Cloudy
11:43 AM 80.6 °F 83.2 °F 68.0 °F 65% 30.11 in 10.0 mi SSW 6.9 mph - N/A   Scattered Clouds
11:50 AM 78.8 °F - 68.0 °F 69% 30.11 in 10.0 mi Variable 3.5 mph - N/A   Mostly Cloudy
11:54 AM 81.0 °F 83.8 °F 68.0 °F 65% 30.08 in 10.0 mi West 5.8 mph - N/A   Mostly Cloudy
12:17 PM 82.4 °F 85.4 °F 68.0 °F 62% 30.10 in 10.0 mi WSW 6.9 mph - N/A   Scattered Clouds
12:54 PM 84.0 °F 86.5 °F 66.9 °F 56% 30.07 in 10.0 mi SSW 13.8 mph 17.3 mph N/A   Scattered Clouds
1:54 PM 84.0 °F 86.5 °F 66.9 °F 56% 30.05 in 10.0 mi Variable 5.8 mph - N/A   Partly Cloudy
2:54 PM 82.9 °F 85.8 °F 68.0 °F 60% 30.02 in 10.0 mi South 10.4 mph - N/A   Mostly Cloudy
3:54 PM 84.9 °F 87.6 °F 66.9 °F 55% 30.00 in 10.0 mi South 8.1 mph 17.3 mph N/A   Partly Cloudy
4:54 PM 84.9 °F 87.1 °F 66.0 °F 53% 29.99 in 10.0 mi South 6.9 mph - N/A   Clear
5:54 PM 84.9 °F 87.6 °F 66.9 °F 55% 29.99 in 10.0 mi South 9.2 mph - N/A   Scattered Clouds
6:54 PM 82.9 °F 85.0 °F 66.0 °F 56% 29.99 in 10.0 mi SSW 9.2 mph - N/A   Scattered Clouds
7:54 PM 79.0 °F - 66.0 °F 64% 29.99 in 10.0 mi SSW 4.6 mph - N/A   Clear
8:54 PM 73.0 °F - 66.0 °F 79% 29.99 in 10.0 mi Calm Calm - N/A   Clear
9:54 PM 71.1 °F - 66.0 °F 84% 30.01 in 10.0 mi Calm Calm - N/A   Clear
10:54 PM 70.0 °F - 64.9 °F 84% 30.01 in 10.0 mi Calm Calm - N/A   Clear
11:54 PM 71.1 °F - 66.0 °F 84% 30.01 in 10.0 mi SSW 4.6 mph - N/A   Partly Cloudy